Terug naar catalogus

STARLINK-11732

ActiefCommunicatieVLEO
NORAD 64370·PAYLOAD·🇺🇸 United States

Gelanceerd Jun 13, 2025 vanaf Cape Canaveral Space Force Station

Loading…

Volgende Passages (komende 24 uur)

TLE

VersSource: CelesTrak SupGP

Epoch: Sep 14, 2026, 21:00 UTC

1 64370C 25127A   26257.87548611  .00086523  00000+0  67184-3 0  2578
2 64370  43.0007  24.2477 0001718 276.3009 159.6344 15.70802025    19

Volg STARLINK-11732 in realtime met AllMySat

Download on the App Store